Wind_Speed
20 20 19 18 19 20 21 24 27 29 29 28 29 31 31 31 32 35 36 36 35 33 30 28 30 33 34 35 36 38 39 40 40 40 40 40 40 41 42 42 42 43 44 45 46 46 46 45 44 44 44 44 43 41 40 41 41 42 42 43 44 44 45 46 45 42 41 41 41 41 43 44 45 45 46 44 41 39 36 34 34 34 35 35 36
23 22 21 20 21 22 24 27 30 31 31 30 30 32 34 34 35 35 34 33 34 37 36 33 31 31 32 34 36 39 41 42 42 42 42 42 42 42 43 44 44 44 45 46 46 46 45 45 43 42 41 41 41 41 40 39 39 40 40 42 42 43 44 45 46 44 43 43 43 42 43 44 44 45 47 47 46 43 40 38 37 36 35 35 36
23 23 22 21 21 22 25 28 31 32 33 32 32 33 35 35 34 31 28 26 28 33 38 38 35 33 33 36 39 41 42 43 44 44 44 43 43 43 43 44 45 46 46 46 46 45 44 44 42 41 40 39 39 40 40 39 38 38 38 39 40 41 43 44 45 44 44 43 43 43 44 44 44 44 47 48 48 47 45 42 40 38 37 36 36
23 23 22 22 22 24 27 28 29 30 31 31 31 31 31 31 31 29 28 29 32 35 37 40 41 41 41 42 43 43 44 46 46 45 45 45 44 44 44 45 46 47 47 47 47 46 45 43 41 40 39 38 37 38 39 39 39 39 38 39 39 39 41 43 44 43 43 43 43 43 44 45 45 44 46 47 48 49 48 46 43 41 39 39 38
23 24 24 24 25 26 27 27 26 27 27 28 29 30 30 29 29 29 31 35 39 38 37 39 42 45 46 46 45 45 47 48 48 47 46 46 46 45 46 46 47 47 48 48 47 46 45 43 41 40 39 38 38 38 38 39 40 40 40 40 40 40 41 42 43 43 42 41 42 43 44 45 45 45 46 46 47 48 49 48 47 44 42 41 41
23 24 26 26 26 26 25 25 26 27 27 28 29 30 31 31 31 30 31 34 36 38 39 40 41 43 45 46 46 47 49 50 50 49 48 48 47 47 47 48 48 49 49 48 46 45 44 43 41 41 41 41 41 40 40 40 40 41 41 42 42 41 41 42 43 43 42 41 41 42 43 44 45 45 46 47 47 47 47 48 48 48 46 44 43
22 24 26 27 27 27 27 26 27 28 28 29 30 30 31 33 34 34 34 35 36 38 40 41 42 44 46 47 48 49 51 52 51 50 49 48 48 48 48 49 49 49 49 47 45 43 42 42 42 42 43 43 43 43 43 42 43 42 43 43 44 44 43 43 43 44 44 43 41 41 41 43 44 44 45 47 47 46 46 47 48 49 48 47 45
25 26 27 29 30 29 28 28 28 29 30 30 32 32 32 33 35 36 37 38 38 40 41 43 44 45 47 49 50 51 51 50 49 47 47 46 47 47 47 48 48 48 47 45 43 42 42 42 43 44 44 44 44 44 45 44 44 44 44 45 45 45 45 46 45 45 45 44 44 43 42 42 43 44 45 47 47 45 46 47 47 48 49 48 47
28 29 30 31 33 32 30 30 31 33 34 33 34 35 35 34 35 37 38 40 41 42 44 45 46 47 48 49 49 49 48 46 45 44 44 45 45 45 46 46 46 45 44 43 42 42 43 44 45 45 45 46 46 45 45 45 45 45 45 45 45 45 46 47 48 47 46 45 45 45 44 43 43 44 45 46 46 45 46 48 47 47 49 49 47
30 32 33 34 35 34 33 32 33 35 36 36 36 37 38 38 38 39 40 42 43 45 46 47 47 47 47 47 47 46 46 45 44 44 45 45 46 46 46 46 46 45 45 44 44 44 45 45 45 46 46 46 46 46 45 45 45 45 44 45 45 44 45 46 48 47 46 46 46 46 46 45 44 45 45 45 46 45 45 47 47 47 48 49 48
32 34 35 36 36 35 34 34 35 36 36 36 37 39 40 40 41 42 43 44 46 46 47 47 47 47 47 46 46 46 46 46 46 46 47 48 49 49 49 48 47 47 46 46 45 45 45 45 45 45 46 46 46 45 45 44 44 43 43 43 43 44 44 45 46 46 46 46 46 46 47 46 45 46 46 45 45 45 44 46 47 47 47 48 47
34 36 37 37 37 37 37 36 36 37 38 39 39 40 41 42 43 44 45 46 47 47 47 46 47 47 47 47 47 47 47 48 49 49 50 50 51 51 50 49 48 47 46 45 45 44 44 43 44 44 44 45 45 45 44 44 43 43 42 42 42 42 43 44 45 45 44 44 44 45 46 46 46 46 47 46 45 45 44 44 45 45 46 47 47
35 37 37 37 38 40 41 40 39 40 41 41 41 42 43 45 46 46 47 48 48 48 47 47 48 48 48 48 48 49 50 50 51 52 52 52 51 51 51 49 48 46 45 44 43 42 42 42 42 42 43 44 44 44 43 43 43 43 43 42 41 41 41 42 44 44 43 42 43 43 44 45 45 45 46 47 46 45 43 42 43 43 45 46 46
37 38 38 39 41 42 43 43 42 42 42 42 43 45 46 47 48 49 49 49 49 49 49 49 50 50 50 50 51 51 52 52 52 52 52 51 51 50 49 48 46 45 43 43 42 42 42 41 41 41 42 42 42 42 42 42 43 43 43 43 41 40 39 40 41 42 43 43 42 41 41 42 43 43 45 46 46 45 44 42 41 42 43 44 45
38 39 40 41 42 42 42 41 41 41 42 43 45 46 47 48 50 51 51 51 51 51 51 52 52 52 52 52 52 52 52 51 51 51 51 50 49 48 47 46 45 44 43 43 42 42 43 43 42 42 42 41 41 40 41 41 41 42 43 43 42 40 39 38 39 41 42 42 41 40 40 40 40 41 42 44 45 45 44 43 41 40 41 42 43
38 39 41 42 41 41 40 40 40 41 43 45 46 47 49 50 51 52 52 52 52 52 53 53 53 53 53 53 53 52 51 51 51 51 50 50 48 47 46 45 44 44 43 43 43 43 43 42 42 42 41 40 40 39 39 40 40 40 41 41 41 40 39 38 38 39 39 40 40 39 39 38 38 38 39 41 42 44 45 43 40 39 39 40 41
38 40 41 42 41 40 40 40 41 43 44 46 47 49 50 51 51 52 52 52 52 53 54 54 54 54 54 53 53 52 51 52 52 51 50 49 48 47 46 45 44 43 43 42 42 41 40 40 40 40 39 39 38 38 38 38 38 38 39 40 40 40 38 37 36 36 37 38 39 38 38 37 36 36 37 38 40 42 44 42 40 40 39 38 38
40 41 42 42 41 41 40 41 43 45 46 47 48 49 50 51 51 51 52 53 53 54 54 54 54 54 54 54 54 53 52 52 51 50 49 48 47 45 44 43 42 41 41 40 39 37 37 38 38 38 37 36 36 36 37 37 36 35 36 37 38 38 37 36 35 35 36 36 37 37 36 35 35 35 35 37 38 40 41 41 40 40 39 37 37
41 42 43 43 43 42 42 43 45 46 47 47 48 49 49 50 51 52 53 53 53 54 54 55 55 55 55 55 54 53 52 50 49 47 46 45 44 43 42 41 40 39 38 37 35 35 35 35 35 35 34 35 35 36 37 37 36 34 34 34 34 35 36 36 34 34 34 34 34 35 34 34 34 34 34 35 37 38 39 40 41 40 39 38 37
41 42 43 43 43 43 43 44 45 46 46 47 48 48 49 50 51 52 52 53 53 54 55 55 55 55 54 53 52 51 49 48 46 45 44 43 43 42 40 39 38 37 36 34 34 34 35 35 34 34 34 34 35 36 36 37 36 35 34 32 31 32 35 35 34 32 32 32 33 33 33 33 33 33 33 34 35 37 39 40 40 40 40 39 38
42 43 43 43 42 43 44 45 45 45 46 46 47 48 49 50 51 51 52 53 54 54 54 54 53 53 52 52 51 50 49 47 46 45 45 44 43 41 39 37 37 35 34 33 33 34 35 36 35 35 35 35 34 34 33 33 33 33 33 32 31 31 32 34 33 32 30 30 31 32 32 31 31 32 32 33 35 36 38 39 39 39 39 38 38
42 43 42 42 42 43 44 44 44 45 46 47 48 49 49 50 51 51 52 53 54 53 52 52 52 52 53 53 52 51 49 48 46 45 45 43 41 38 37 35 34 33 32 32 33 33 34 35 36 36 35 34 32 30 30 30 30 31 31 31 30 29 30 31 32 31 30 29 29 30 31 31 31 31 31 32 34 36 37 37 37 38 38 38 38
43 42 41 41 42 43 44 44 45 46 47 48 48 49 49 50 51 52 52 52 52 50 50 51 51 52 52 51 49 48 46 44 42 40 38 37 35 35 34 32 32 31 30 31 32 33 34 34 34 34 34 32 30 29 28 28 29 29 29 29 28 28 28 28 29 29 29 28 28 29 30 31 31 31 31 32 33 34 35 35 36 36 36 36 37
40 40 40 41 43 44 44 44 45 46 47 47 47 47 48 50 51 51 51 50 49 49 49 48 47 46 44 42 40 37 35 33 31 29 29 29 30 30 30 30 30 29 29 29 30 31 32 33 33 32 32 31 30 29 28 28 28 27 27 26 26 25 25 26 26 27 27 27 27 28 30 31 32 32 32 32 32 33 33 33 34 35 35 36 37
38 39 41 43 43 43 43 44 45 45 45 45 46 47 48 49 49 48 47 47 46 45 43 42 41 40 37 34 32 29 27 25 24 23 24 25 25 25 25 25 25 24 24 24 24 24 26 28 29 29 28 28 27 27 26 25 24 24 23 23 23 23 23 23 24 24 24 25 26 27 29 31 32 32 33 33 33 33 33 34 35 36 37 38 39
39 42 43 43 43 43 43 44 44 44 43 44 45 46 47 47 46 45 45 44 42 40 38 37 37 36 34 31 29 27 25 23 22 22 21 21 21 21 20 19 19 19 19 19 18 18 19 21 22 22 22 21 22 21 20 20 19 19 19 19 19 20 21 21 22 22 23 24 25 26 28 31 32 33 34 34 34 34 35 35 36 36 38 39 40
42 43 43 42 41 42 42 43 42 42 42 43 44 45 44 43 43 42 41 39 37 35 35 34 33 32 31 31 29 27 24 23 22 21 20 18 16 14 13 13 13 14 16 16 16 15 15 16 16 15 14 14 14 14 14 15 15 15 16 16 16 17 18 19 20 22 23 25 26 27 28 30 31 32 33 34 35 36 37 38 37 38 39 41 41
42 41 40 40 40 41 41 40 40 40 41 43 43 42 41 41 40 39 37 34 33 33 31 30 29 29 30 31 28 24 22 20 18 17 14 10 8 8 9 10 12 14 16 16 15 14 13 13 12 12 10 9 9 9 10 11 11 12 13 14 14 16 17 18 20 21 22 24 27 28 30 31 33 35 37 38 38 38 39 39 39 40 41 43 43
39 38 39 39 39 39 39 38 39 40 41 41 40 38 38 38 37 34 31 30 30 28 27 27 28 28 28 27 23 19 18 16 14 12 10 8 7 7 9 11 12 13 15 16 14 12 11 9 9 8 8 7 6 6 8 9 10 11 11 12 13 13 14 14 15 15 16 17 18 19 22 25 28 30 30 31 32 33 33 34 36 38 39 40 40
36 37 38 38 37 36 36 37 38 39 39 38 36 35 35 34 32 29 27 27 25 24 26 28 27 26 26 23 17 14 15 13 11 9 8 7 8 8 9 11 12 13 14 15 14 13 12 11 9 5 3 4 4 5 6 7 8 8 9 9 10 9 9 9 10 10 9 10 11 11 11 13 14 14 14 14 16 18 19 21 23 25 26 26 27
36 37 37 36 35 34 35 37 38 37 36 34 32 32 31 30 28 25 24 22 22 25 28 28 25 24 25 22 18 16 15 12 10 9 8 8 8 7 8 11 13 14 14 14 13 13 14 14 14 12 8 5 3 3 3 4 5 6 6 7 7 7 7 7 8 8 7 7 8 9 9 9 9 9 9 9 10 11 11 13 14 16 17 18 20
35 35 34 33 33 34 35 36 36 34 32 31 29 28 28 27 25 22 19 19 23 27 27 24 21 23 24 21 20 20 17 14 12 12 12 11 10 9 9 11 13 14 15 15 15 15 15 16 17 16 14 11 8 6 4 2 3 5 5 6 6 6 6 7 7 7 7 7 8 8 8 9 9 9 9 9 9 9 10 11 12 13 15 16 17
33 32 32 32 33 34 35 34 33 31 29 28 26 25 24 23 21 18 16 19 24 26 24 21 21 23 21 18 17 17 16 16 16 15 15 15 14 13 12 12 11 13 15 15 15 15 15 16 16 15 13 10 8 7 5 4 4 5 5 6 6 7 7 7 8 8 8 7 7 8 8 9 9 9 9 9 9 9 10 10 11 13 14 15 15
31 30 30 31 32 33 33 33 31 29 27 25 22 21 21 20 17 15 17 20 22 21 21 21 21 20 18 15 13 12 14 17 18 18 19 19 16 14 12 12 12 14 16 16 15 15 16 16 15 14 12 11 9 8 8 6 6 6 6 7 7 7 7 8 8 9 9 9 8 7 7 8 9 9 9 9 10 10 10 11 11 12 13 14 15
30 29 30 31 32 32 32 32 30 27 25 22 19 18 18 16 13 13 16 18 18 17 18 18 18 18 17 16 14 12 13 15 16 17 18 19 18 17 15 12 11 12 14 14 14 14 14 13 13 13 13 12 10 8 8 8 7 7 7 7 7 8 8 8 8 9 9 9 8 6 6 7 9 9 9 10 10 11 11 11 12 12 12 12 13
28 29 30 31 31 32 32 31 28 25 22 18 15 15 14 12 11 12 14 15 15 16 16 16 19 21 23 23 22 21 20 20 20 20 20 21 24 25 22 18 15 14 13 13 12 12 12 12 11 11 11 11 10 9 8 8 8 9 8 8 8 8 8 8 8 9 10 10 9 8 8 9 10 10 10 11 11 11 12 12 12 12 12 12 13
28 29 30 31 32 32 32 30 25 22 19 15 12 12 11 8 7 10 13 14 15 14 14 16 19 23 26 28 28 28 29 30 31 31 30 30 30 30 28 26 25 24 22 20 20 19 19 18 18 17 16 15 15 14 14 13 13 12 12 12 11 11 11 11 11 11 11 10 10 9 9 9 9 9 9 9 9 9 9 10 10 10 10 11 12
27 29 30 31 32 32 31 27 22 18 16 12 10 10 8 5 4 8 12 14 14 13 14 16 19 22 25 26 27 28 30 33 34 33 32 31 30 29 29 29 28 27 26 26 26 25 25 24 24 24 23 23 23 23 22 22 21 21 20 20 20 19 19 18 18 17 16 16 15 14 14 14 14 13 12 12 12 12 12 12 12 12 12 12 11
28 30 30 31 32 31 28 23 19 16 13 10 8 7 5 2 4 9 12 12 12 12 14 16 18 21 23 24 24 26 29 31 31 30 28 28 27 27 28 27 27 26 26 26 25 25 25 25 25 25 25 25 25 24 24 24 24 23 22 22 22 21 21 21 21 20 20 20 19 18 18 17 17 16 15 15 15 15 15 15 14 14 14 14 14
28 29 30 32 31 28 23 19 17 14 10 8 6 5 3 2 7 11 12 11 10 10 12 14 16 19 21 22 24 25 27 27 27 26 25 26 25 25 25 25 25 24 24 24 24 23 23 23 23 22 22 22 22 21 21 21 21 20 20 20 20 20 20 20 19 19 19 18 17 17 16 16 15 15 15 15 14 14 14 13 13 13 14 14 14
28 29 31 31 28 23 20 17 14 11 8 5 4 4 4 7 10 11 12 10 9 9 11 13 15 17 19 21 22 23 24 24 24 23 23 23 23 23 23 22 22 22 22 22 21 21 21 20 20 19 19 19 18 18 18 18 18 18 18 18 18 17 17 17 17 16 16 15 15 14 14 13 13 13 13 13 13 12 13 13 13 13 14 14 14
28 29 29 26 22 18 16 14 11 8 5 4 5 6 6 9 12 12 11 10 8 9 10 12 14 16 17 19 20 21 22 22 22 22 21 21 21 21 20 20 20 20 20 19 19 19 18 18 18 17 17 16 16 16 16 15 15 15 15 15 15 14 14 14 14 13 13 13 13 12 12 12 12 12 13 13 13 13 14 14 14 15 15 15 15
28 27 24 19 15 13 12 10 8 5 4 5 9 10 10 12 13 11 10 9 7 8 10 11 13 14 15 17 18 19 20 20 20 20 20 19 19 19 19 18 18 17 17 17 17 16 16 16 15 15 15 14 14 14 14 14 13 13 13 13 13 13 13 13 13 13 13 12 12 12 13 13 13 13 13 14 14 15 15 16 16 17 17 17 17
25 22 18 14 12 10 9 8 6 5 6 8 10 10 12 14 12 10 9 8 6 7 9 10 11 12 14 15 17 17 18 18 19 18 18 18 18 17 17 17 16 16 16 16 16 16 15 15 15 15 15 15 14 14 14 13 13 13 12 12 12 12 12 13 13 13 13 14 14 14 14 15 15 15 16 16 16 17 17 18 18 18 19 19 20
21 18 14 12 10 9 7 7 7 7 8 8 8 12 14 13 11 9 8 7 6 6 7 8 9 11 12 14 15 16 17 17 17 17 17 17 17 16 16 16 15 15 16 16 16 16 16 16 16 16 16 16 15 15 15 14 14 14 13 13 13 13 13 13 13 13 13 14 14 15 15 16 16 17 17 18 18 19 20 20 21 21 22 22 23
19 16 12 11 10 9 8 7 6 5 6 5 10 15 14 12 10 9 7 6 5 4 5 6 8 9 11 13 14 15 15 16 16 16 16 16 16 15 15 15 15 15 15 16 15 15 15 15 15 16 16 16 16 16 16 15 15 15 14 14 14 14 14 14 14 14 14 14 15 15 16 16 17 17 18 19 19 20 21 22 23 24 25 26 26
18 16 13 10 9 7 5 3 2 3 4 7 11 13 12 10 9 8 6 5 4 4 4 6 8 9 11 12 13 13 14 15 15 15 15 15 15 14 14 14 15 15 14 14 14 14 14 15 15 15 15 15 15 16 16 16 16 16 16 16 16 16 16 16 16 16 16 16 16 16 17 17 18 19 19 20 21 22 22 23 24 25 26 27 28
18 17 14 10 7 6 6 6 7 9 10 11 11 10 9 8 7 6 5 4 4 4 5 7 8 9 10 11 12 13 13 14 15 15 15 14 14 13 14 14 14 13 13 12 12 12 12 12 13 13 14 14 15 15 16 16 16 16 16 17 17 17 17 17 17 17 17 18 18 18 19 19 20 21 21 22 23 24 24 25 26 27 27 28 29
15 15 14 13 11 10 10 10 10 10 11 10 9 8 7 7 6 5 4 4 4 5 6 7 8 9 10 11 12 13 14 14 15 14 14 14 14 13 14 13 13 12 11 10 10 10 11 12 12 13 14 14 15 15 15 16 16 16 16 17 17 17 17 17 17 18 18 19 20 20 21 21 22 22 23 24 24 25 26 26 27 28 28 29 29
10 11 11 11 10 9 9 8 9 9 9 9 8 7 6 5 4 4 4 4 5 6 6 7 8 10 11 12 13 14 14 14 14 14 13 13 13 13 13 12 11 10 10 10 11 12 12 13 14 14 15 15 15 16 16 16 16 17 17 17 18 18 19 19 19 20 20 21 21 22 22 23 23 24 24 25 26 26 27 27 27 28 29 29 30
6 6 7 6 6 6 5 5 5 6 6 6 5 5 4 4 4 4 4 5 6 7 7 9 10 11 12 13 13 13 13 13 12 12 12 11 11 11 11 11 11 11 11 12 12 13 14 15 15 15 15 15 16 16 16 17 17 18 18 19 19 20 20 21 21 22 22 23 23 23 24 24 25 25 26 26 26 27 27 27 28 29 30 31 32
Wind_Direction
322 317 313 307 302 298 294 295 298 303 306 303 297 294 293 296 299 299 296 286 278 274 273 282 292 291 287 284 282 283 287 291 292 290 290 289 288 288 287 287 288 289 289 290 290 289 287 284 281 278 277 276 275 273 271 269 268 268 268 267 267 266 264 263 261 259 257 256 255 254 256 257 257 258 259 258 256 252 248 247 247 248 249 250 251
322 319 317 310 303 297 292 292 295 300 303 299 292 288 289 297 303 302 298 291 281 275 272 279 293 297 294 293 290 289 291 292 293 293 293 292 292 292 292 292 292 291 290 289 289 288 286 283 280 277 275 275 275 274 273 271 269 268 267 267 266 266 265 262 260 258 257 257 256 254 254 255 256 257 258 258 258 256 253 249 247 247 248 249 249
320 316 314 309 303 298 294 293 294 298 301 296 291 290 293 301 305 299 294 295 292 284 276 277 286 294 297 298 295 293 292 292 291 291 292 292 292 292 292 293 293 292 290 289 289 287 284 280 278 277 276 276 275 274 273 272 270 269 268 267 266 266 266 265 261 257 255 255 255 255 255 254 254 255 256 257 257 258 256 253 249 247 247 248 249
317 312 309 306 302 300 297 295 295 298 300 295 292 295 300 305 306 295 284 287 294 295 288 281 281 286 293 297 296 293 291 290 290 290 291 291 292 292 292 292 291 291 290 290 289 287 283 279 277 277 277 277 276 274 273 272 271 271 270 269 268 267 266 266 265 261 256 253 254 254 254 254 254 254 255 256 256 257 257 255 253 250 247 247 247
315 312 309 305 300 298 296 296 297 298 300 299 296 298 300 301 301 296 288 287 290 292 290 285 282 283 288 293 294 293 291 290 291 291 291 292 292 292 292 291 290 290 289 289 288 286 283 280 279 278 278 278 277 275 274 273 273 273 272 271 270 268 266 266 266 265 261 256 254 253 253 252 253 254 254 255 255 256 256 256 255 253 250 248 246
312 311 309 307 303 300 297 297 301 301 302 303 301 300 300 299 297 296 293 292 292 291 290 289 288 288 290 292 293 292 291 291 291 291 292 292 292 292 291 290 290 289 288 288 286 284 282 280 279 278 278 277 277 276 275 274 273 272 272 271 270 269 268 266 265 265 264 261 257 255 253 251 251 252 254 254 254 255 256 257 257 255 252 249 248
311 310 308 307 305 301 297 297 301 303 303 303 302 302 301 300 298 298 298 296 295 293 292 291 291 291 292 292 292 292 291 290 290 290 291 291 291 291 290 290 289 288 287 287 285 282 280 278 277 277 277 277 277 277 276 275 273 272 271 270 270 269 268 267 265 264 263 263 261 258 255 253 251 250 251 253 253 254 255 255 256 256 254 251 249
310 310 308 306 304 299 296 295 296 298 300 302 304 304 302 301 300 300 300 299 296 293 292 291 291 291 292 292 292 291 290 290 290 291 292 291 291 290 290 289 288 287 286 285 284 282 280 279 278 278 278 278 278 277 277 275 274 272 271 269 268 268 267 266 264 263 261 261 261 260 258 255 253 251 250 251 252 252 253 253 253 255 256 254 251
309 309 307 304 301 299 297 295 294 294 297 301 304 305 304 302 302 300 299 298 296 294 293 293 294 294 293 293 292 291 291 291 292 293 292 292 292 291 290 290 289 288 286 285 284 282 281 281 280 280 280 280 279 278 277 276 275 273 272 270 268 267 266 265 263 262 261 260 259 258 258 256 255 253 251 250 250 250 251 252 252 252 254 255 254
308 309 307 303 301 301 298 296 294 294 297 301 303 304 304 304 304 303 301 299 297 297 297 298 298 297 295 293 292 292 292 293 293 294 294 293 293 292 291 291 290 288 287 286 284 283 283 282 282 282 281 280 280 279 277 276 275 273 271 270 269 267 266 265 263 262 261 259 258 257 256 256 255 254 253 251 250 249 250 251 251 250 251 253 255
308 309 308 306 303 302 299 298 297 297 299 302 302 302 303 305 305 304 302 301 301 301 300 300 298 296 295 294 293 293 294 294 295 295 295 295 295 294 292 291 289 288 287 286 285 284 283 283 282 281 281 280 279 278 277 276 274 273 271 270 269 267 266 265 264 263 262 260 258 257 256 255 254 253 253 252 252 250 249 250 250 250 250 251 252
309 309 308 307 305 302 301 300 299 300 301 301 301 302 303 305 305 304 304 303 302 301 300 298 297 296 296 296 296 296 296 297 297 297 297 297 296 294 293 291 290 289 288 287 286 284 283 282 282 281 280 279 278 278 277 276 274 273 271 270 269 268 266 266 265 264 262 261 260 258 257 255 253 253 253 252 252 251 251 251 251 250 250 250 250
309 309 308 308 306 304 303 302 301 301 301 301 302 303 305 306 306 305 304 303 302 300 299 298 298 298 299 299 298 298 299 299 299 299 298 297 295 294 293 292 292 291 290 288 287 285 284 282 282 281 280 279 279 278 276 275 274 272 271 271 270 269 268 266 266 265 264 263 261 260 259 257 255 254 253 252 252 252 252 252 252 251 249 249 249
308 307 307 306 305 303 303 302 301 301 301 302 304 306 307 307 306 305 304 303 302 302 301 302 302 302 302 302 301 301 301 300 299 298 297 295 295 294 293 293 292 291 290 288 286 285 283 282 282 281 281 279 278 276 274 273 271 271 270 270 270 270 269 268 266 265 265 264 263 262 261 259 257 255 254 252 251 252 252 253 253 253 251 250 249
305 305 305 305 304 303 302 302 302 302 303 305 306 307 307 307 306 306 305 304 304 304 304 304 304 304 303 302 302 301 300 299 297 296 295 295 295 294 293 292 291 290 288 287 286 284 283 282 281 280 279 277 275 273 272 271 270 270 270 269 268 268 268 267 266 264 264 264 264 263 263 261 259 257 255 254 252 251 251 252 254 255 254 252 250
301 302 303 304 304 304 303 304 304 305 306 306 307 307 308 308 307 306 306 305 305 305 305 305 304 303 302 301 300 300 299 298 296 296 296 296 295 294 292 291 289 288 288 287 286 285 283 282 281 279 277 275 273 271 271 271 271 271 271 269 267 266 266 266 265 264 264 264 264 263 263 263 262 260 257 254 252 250 250 251 253 256 256 254 252
299 300 302 304 304 304 304 304 305 306 307 308 309 309 309 307 306 305 305 305 305 305 305 304 304 303 302 301 300 300 299 297 296 297 297 296 294 293 291 289 288 288 287 287 286 284 283 281 279 277 274 272 270 270 272 273 274 274 272 269 266 264 264 266 266 264 263 262 262 261 262 263 263 262 260 256 252 249 249 250 252 254 256 256 254
297 299 301 303 303 303 304 305 306 308 309 309 309 308 306 306 305 306 306 306 306 306 305 305 304 303 302 301 300 299 298 297 297 297 297 296 294 293 291 289 288 288 287 288 287 285 282 281 279 275 272 270 270 270 273 275 277 277 275 270 266 263 263 264 265 264 263 262 261 261 261 261 261 261 260 258 254 250 248 248 250 252 254 255 254
296 298 300 302 303 304 305 306 307 308 308 308 307 306 306 306 307 307 307 307 307 306 305 304 304 303 302 301 300 299 299 298 298 297 297 296 295 293 291 289 288 288 288 288 287 285 283 282 279 275 272 270 270 271 273 275 276 277 276 273 269 265 263 262 263 265 265 264 263 262 260 259 259 258 258 257 254 251 248 247 249 251 252 253 252
296 299 301 303 304 304 304 305 306 306 307 307 307 307 307 308 307 307 307 307 306 306 305 305 305 304 303 301 300 299 298 297 296 296 296 297 297 295 292 290 289 288 287 286 284 283 282 281 278 275 273 272 272 273 274 275 274 274 274 274 271 266 262 261 262 264 265 265 264 262 261 259 259 258 257 256 254 251 249 247 249 251 253 253 253
299 301 303 303 303 303 304 305 306 307 308 308 308 308 308 308 307 307 308 308 307 307 308 308 307 305 304 303 301 299 297 295 294 293 294 295 296 295 293 291 290 289 287 284 282 280 279 278 277 275 274 273 273 274 274 273 272 271 271 271 268 264 261 260 261 263 264 264 264 263 262 261 260 259 257 255 253 250 249 248 249 251 254 255 255
299 301 302 302 303 304 306 307 308 309 309 310 310 310 309 308 309 309 310 310 310 311 311 310 309 307 305 303 300 298 295 293 291 290 290 292 293 293 292 291 290 288 286 284 281 279 277 275 275 274 273 273 273 273 273 271 269 268 269 269 267 265 262 260 260 261 263 264 263 262 262 261 260 259 258 255 253 251 250 250 250 253 255 257 257
297 299 301 303 305 307 308 309 310 311 311 311 311 310 310 310 311 312 312 313 313 314 314 312 311 309 307 304 301 298 295 293 291 290 289 290 291 292 292 291 290 288 286 282 279 277 275 274 273 273 273 273 273 271 270 269 268 267 268 269 269 267 265 262 260 260 261 263 262 261 260 260 260 259 258 256 254 252 252 252 253 254 256 257 258
298 300 303 305 307 309 311 312 312 312 312 311 310 311 312 313 314 314 315 316 317 316 315 314 314 314 313 311 308 305 303 300 298 295 293 293 293 293 293 293 292 290 287 283 279 275 273 272 271 271 271 271 271 271 270 269 269 270 270 270 270 269 267 264 261 260 261 262 262 261 259 259 259 258 258 258 256 255 254 254 255 255 256 256 257
301 304 307 309 310 312 312 312 312 312 311 311 312 313 314 315 316 317 318 318 318 317 317 319 320 320 321 320 319 318 316 314 310 305 301 298 298 298 298 298 297 295 292 288 283 278 273 271 271 271 270 270 270 271 271 271 271 271 270 269 268 268 267 265 263 263 263 263 263 262 260 259 259 259 259 259 259 258 258 257 257 257 258 259 259
303 307 309 310 312 312 312 312 311 311 312 313 314 315 316 318 319 320 319 319 320 321 322 323 323 323 324 325 326 326 324 320 315 309 306 305 305 306 306 306 306 305 303 299 295 288 281 277 276 277 276 273 272 273 274 273 271 270 269 269 269 268 267 266 265 265 265 264 264 263 261 260 260 260 260 260 261 261 261 260 260 260 261 260 260
305 308 310 311 312 312 311 311 312 313 314 315 316 317 319 321 321 321 321 322 324 325 326 326 327 327 327 328 330 328 324 318 315 315 316 315 315 317 321 325 327 324 318 314 310 301 293 287 285 286 283 278 276 276 275 274 274 274 275 276 276 275 275 273 271 269 267 265 265 265 265 265 264 263 262 262 261 261 261 260 261 261 261 261 261
306 308 310 311 312 312 311 312 313 315 316 317 318 320 321 322 322 323 325 327 328 330 330 331 331 331 331 332 332 329 323 321 325 331 335 339 346 351 352 351 346 337 334 335 332 321 310 300 293 290 286 281 279 280 283 285 287 288 289 290 289 288 285 282 280 277 274 270 267 264 264 266 266 265 263 261 259 258 258 259 260 260 261 263 264
307 309 311 311 312 312 312 313 315 316 317 319 320 321 321 322 324 327 329 332 334 334 334 334 335 335 337 340 341 337 332 334 344 355 4 18 24 14 3 359 355 352 357 3 3 358 351 338 318 298 285 279 277 282 290 297 302 305 306 304 300 295 292 293 294 294 292 288 282 274 269 267 267 268 268 265 261 258 257 259 260 260 261 262 264
309 310 311 311 312 312 313 315 316 317 318 320 321 321 322 323 325 330 335 337 337 337 337 337 338 340 345 353 360 356 347 348 0 10 15 23 23 14 10 13 14 18 23 24 24 26 28 24 17 4 314 283 282 292 303 313 318 318 315 310 306 306 308 310 310 309 307 303 299 297 292 286 283 286 291 288 279 270 265 263 263 263 263 263 263
310 310 310 311 312 313 314 316 317 318 319 320 320 321 323 324 328 334 339 339 337 338 340 340 342 346 352 4 18 18 11 11 19 23 21 19 17 19 28 36 41 42 40 36 36 41 43 44 49 57 62 55 43 36 25 5 341 327 320 316 315 317 317 314 314 319 322 318 312 310 311 310 308 305 304 302 299 293 285 278 273 272 271 269 268
310 310 311 311 313 315 316 316 318 319 319 319 320 321 324 328 332 336 339 338 338 340 342 346 351 354 358 10 18 18 19 27 34 38 38 32 32 43 53 54 50 42 36 37 40 44 48 51 56 63 68 70 73 80 76 38 343 334 335 331 326 324 319 315 316 319 321 320 320 318 316 314 312 307 303 300 298 295 292 288 284 281 279 278 278
310 311 312 313 314 316 317 317 318 319 319 319 320 322 328 333 335 334 338 343 344 344 348 358 3 0 3 14 17 15 26 42 48 50 49 48 53 64 70 66 52 35 32 38 42 44 49 51 54 60 64 62 61 59 51 32 3 349 345 338 333 331 329 325 324 322 320 318 319 320 321 317 311 305 302 300 298 297 297 295 291 285 282 281 280
311 312 313 314 315 317 317 317 318 319 319 319 319 324 332 336 334 336 344 349 351 355 2 9 10 8 12 20 21 20 37 51 56 55 51 52 61 72 77 75 59 42 39 44 45 46 49 49 49 50 49 43 39 32 20 8 359 349 345 344 341 340 338 336 335 332 327 323 320 320 323 321 316 312 309 307 306 306 306 305 301 296 288 280 273
312 312 313 315 317 318 317 317 318 318 317 317 319 327 333 334 334 343 351 356 4 14 20 24 29 32 35 39 40 40 45 51 54 54 52 54 62 66 68 73 69 54 45 42 41 42 44 44 43 42 36 29 24 14 359 353 353 352 350 348 344 340 338 338 338 339 336 329 323 320 317 315 316 317 315 311 309 308 307 307 308 307 303 296 286
312 313 315 317 318 317 316 316 316 316 314 315 320 326 329 333 342 353 1 13 26 36 42 48 54 57 57 58 58 60 61 60 59 58 56 56 58 59 59 62 65 62 55 49 44 43 42 42 44 41 31 23 17 11 5 3 2 359 355 351 346 342 340 340 343 348 346 340 332 324 317 314 313 313 312 312 312 312 311 310 309 308 307 306 302
313 315 318 319 318 316 315 315 314 312 312 314 317 321 325 336 356 7 20 37 48 54 61 63 63 64 63 62 61 62 64 65 64 63 62 61 61 61 60 60 60 60 59 58 58 57 55 55 56 56 53 50 48 47 46 44 40 37 35 33 32 32 31 29 28 24 16 7 1 355 350 347 345 343 342 342 342 342 339 334 329 327 326 323 319
316 319 320 319 317 316 316 314 312 311 312 311 311 317 323 339 23 38 49 60 68 72 72 69 67 66 64 62 62 62 64 64 63 63 63 63 64 64 63 63 63 63 63 63 62 63 63 63 63 63 63 62 61 60 59 58 57 56 55 54 54 55 55 54 53 51 48 45 43 41 40 38 36 33 31 31 31 30 28 25 21 17 14 11 7
319 320 320 319 318 317 316 313 311 311 308 301 303 311 307 312 66 70 76 82 84 82 76 71 68 66 63 60 59 59 60 61 62 62 63 63 62 62 62 62 61 61 61 61 61 60 61 61 61 61 61 60 59 59 58 58 58 58 58 59 59 58 57 57 56 55 53 52 51 50 49 48 47 45 43 43 42 40 37 35 33 30 27 24 23
320 319 319 318 317 317 315 313 313 311 303 294 296 292 255 147 95 89 94 99 95 87 79 72 67 63 60 57 55 55 57 59 60 60 61 60 59 58 58 57 56 56 56 56 56 56 55 56 56 56 57 57 57 56 56 56 57 56 55 55 54 53 53 52 51 51 50 49 47 47 46 46 45 43 41 40 37 34 31 28 24 20 18 16 15
320 320 319 318 317 317 318 317 315 309 300 292 282 252 192 132 108 105 108 107 100 91 81 73 67 63 58 54 52 52 53 55 56 56 56 55 54 54 53 51 51 50 50 51 51 51 51 51 52 52 52 52 52 51 51 51 51 49 48 47 47 46 46 45 45 45 44 43 41 39 37 36 35 32 30 28 25 20 17 14 10 7 5 3 1
322 321 319 318 319 321 323 323 319 308 293 262 234 214 171 133 120 120 119 115 106 94 82 72 66 61 56 52 49 48 49 51 51 51 51 50 49 49 49 47 47 46 46 47 47 47 46 46 46 46 46 45 44 43 42 42 42 41 40 39 38 36 35 35 34 34 33 32 31 27 23 20 17 14 11 9 5 2 0 358 356 354 353 352 350
324 322 322 322 324 328 332 334 329 318 288 239 221 202 161 134 129 129 127 122 110 91 78 69 63 58 52 48 46 44 45 47 48 47 47 46 45 45 45 44 44 44 44 45 46 45 45 44 44 43 42 40 39 38 35 33 32 29 27 25 24 20 17 15 13 12 12 12 11 8 4 0 358 356 353 350 348 346 345 344 343 342 342 341 339
328 328 329 329 330 336 344 345 337 321 291 255 224 186 146 131 132 135 132 126 111 86 72 63 56 52 47 42 41 41 42 43 44 43 42 41 41 41 41 41 40 40 41 41 41 40 38 38 37 36 35 34 33 32 30 28 25 22 19 17 13 8 5 2 359 356 355 353 352 350 347 344 343 342 340 339 338 336 335 334 334 333 333 332 330
336 337 336 332 334 343 345 337 330 311 279 245 184 144 131 131 135 136 132 125 108 84 67 56 48 43 39 36 36 37 39 40 39 38 37 36 36 35 35 35 35 34 34 33 32 31 31 30 30 30 29 29 27 26 24 21 19 16 13 10 6 2 359 356 352 348 346 344 342 340 337 335 334 333 332 331 330 330 329 330 329 329 328 327 326
348 349 346 339 339 341 331 321 324 310 266 206 142 125 125 129 130 127 126 120 105 83 61 47 38 33 31 31 32 34 36 36 35 33 31 30 29 28 27 27 27 26 26 26 27 27 28 29 29 29 28 27 25 23 21 19 17 14 11 8 4 1 358 354 350 347 344 342 339 336 333 331 330 328 327 327 326 325 325 325 325 324 323 323 322
3 6 4 354 346 346 344 344 23 77 115 117 111 111 117 121 119 118 118 111 95 69 46 35 27 25 25 27 28 30 31 30 29 27 25 22 20 19 18 19 18 19 21 24 26 28 28 28 28 28 28 27 25 23 22 20 18 15 12 9 5 2 358 354 351 348 345 342 339 336 333 331 329 327 326 325 323 322 322 322 321 321 320 320 319
18 23 25 23 27 49 70 82 92 100 102 101 101 103 107 107 104 101 94 82 62 42 32 25 22 23 24 24 25 25 25 24 23 21 18 15 12 11 11 12 13 16 21 24 26 27 28 27 26 26 26 25 24 23 21 19 17 15 12 8 5 1 357 354 352 349 346 342 340 337 333 331 329 327 325 324 323 323 322 322 321 321 320 320 319
26 36 43 49 58 69 80 88 94 98 98 97 97 96 93 89 86 81 73 62 46 35 27 21 19 21 21 21 21 20 18 16 15 13 9 5 3 3 4 6 9 13 16 18 19 20 21 20 20 20 20 20 19 17 15 14 12 11 8 5 2 359 356 354 351 348 345 342 339 336 334 332 329 328 326 326 325 324 323 323 322 321 320 320 319
24 38 48 56 63 68 73 79 83 85 87 89 88 85 82 77 73 68 59 47 40 33 26 20 19 19 17 15 14 12 10 8 6 3 359 357 356 356 358 0 3 5 7 8 9 10 11 12 12 12 12 11 10 9 8 7 6 5 3 1 359 356 354 352 350 348 345 342 339 337 335 333 331 329 328 327 325 324 323 322 321 321 320 320 320
7 27 39 47 55 59 62 65 68 71 74 77 78 77 75 70 64 56 48 41 35 29 24 20 17 15 13 10 6 2 1 1 358 353 351 351 351 352 353 356 358 360 1 2 3 3 3 4 4 3 2 2 1 359 359 359 359 358 357 356 354 353 352 351 349 347 344 342 340 338 336 334 332 330 329 327 326 324 323 322 321 321 321 321 321
Height
5885 5885 5884 5884 5884 5884 5884 5883 5882 5881 5879 5878 5877 5876 5875 5875 5875 5873 5871 5870 5869 5868 5867 5866 5865 5864 5862 5861 5860 5858 5857 5855 5853 5852 5851 5850 5848 5846 5845 5844 5843 5841 5840 5838 5836 5834 5832 5830 5829 5827 5825 5825 5824 5824 5824 5823 5823 5823 5823 5823 5823 5823 5823 5823 5826 5829 5830 5829 5830 5830 5829 5829 5830 5831 5832 5833 5835 5837 5839 5840 5841 5842 5843 5843 5844
5884 5883 5882 5882 5882 5882 5881 5880 5879 5877 5876 5875 5874 5872 5871 5871 5871 5870 5868 5867 5866 5866 5865 5864 5863 5860 5859 5858 5857 5855 5853 5851 5849 5847 5845 5844 5842 5841 5839 5837 5837 5836 5835 5833 5831 5829 5827 5825 5823 5822 5820 5819 5819 5818 5817 5817 5817 5817 5817 5817 5817 5817 5817 5817 5819 5822 5824 5824 5824 5825 5825 5824 5826 5826 5825 5827 5829 5830 5833 5835 5836 5838 5838 5839 5840
5882 5881 5880 5879 5879 5878 5878 5877 5875 5874 5873 5872 5871 5869 5868 5868 5867 5866 5865 5863 5863 5862 5862 5861 5860 5857 5855 5854 5852 5850 5849 5846 5844 5842 5840 5838 5836 5835 5833 5831 5830 5829 5829 5827 5825 5823 5821 5819 5818 5816 5815 5814 5814 5812 5812 5811 5811 5811 5811 5811 5812 5812 5811 5810 5812 5815 5817 5818 5818 5819 5819 5819 5821 5821 5820 5821 5823 5824 5827 5829 5831 5833 5834 5835 5836
5881 5880 5879 5878 5876 5876 5875 5874 5873 5872 5871 5870 5868 5867 5866 5864 5864 5863 5862 5860 5859 5859 5858 5858 5856 5853 5851 5850 5848 5846 5844 5841 5839 5837 5834 5832 5830 5828 5826 5825 5824 5823 5822 5820 5819 5817 5814 5813 5812 5811 5809 5809 5808 5807 5806 5806 5805 5805 5806 5806 5806 5806 5806 5805 5805 5807 5810 5812 5813 5813 5813 5814 5815 5816 5815 5815 5817 5818 5820 5823 5825 5827 5829 5830 5831
5879 5878 5877 5875 5874 5874 5873 5871 5870 5869 5868 5867 5865 5864 5863 5862 5860 5860 5858 5857 5855 5855 5854 5853 5851 5849 5846 5845 5842 5840 5838 5835 5833 5831 5828 5826 5824 5822 5820 5819 5817 5816 5815 5814 5812 5810 5808 5807 5806 5805 5803 5803 5803 5802 5801 5800 5800 5799 5799 5800 5800 5800 5800 5799 5799 5800 5802 5805 5806 5807 5807 5808 5809 5810 5810 5810 5811 5812 5814 5816 5818 5821 5823 5824 5825
5877 5876 5875 5873 5872 5872 5871 5869 5867 5865 5864 5863 5863 5861 5860 5858 5857 5856 5855 5853 5851 5850 5849 5847 5845 5843 5841 5838 5836 5834 5832 5829 5827 5824 5822 5819 5817 5815 5813 5812 5811 5809 5808 5807 5805 5803 5802 5801 5800 5799 5798 5797 5796 5795 5795 5794 5794 5793 5793 5793 5793 5793 5794 5794 5794 5794 5796 5798 5799 5800 5801 5802 5803 5804 5804 5804 5805 5807 5809 5810 5812 5814 5815 5817 5818
5875 5874 5872 5871 5870 5869 5868 5866 5864 5862 5860 5859 5859 5857 5855 5854 5853 5851 5849 5848 5847 5845 5843 5841 5839 5837 5834 5832 5829 5827 5825 5823 5820 5817 5815 5812 5810 5808 5806 5805 5803 5802 5801 5799 5798 5797 5796 5795 5794 5793 5792 5791 5790 5789 5788 5787 5787 5787 5787 5787 5786 5787 5787 5788 5788 5788 5789 5791 5792 5793 5794 5795 5796 5797 5798 5797 5799 5802 5803 5804 5805 5806 5808 5810 5813
5873 5871 5869 5868 5866 5864 5863 5862 5861 5859 5857 5855 5854 5852 5851 5850 5848 5846 5844 5843 5841 5840 5838 5836 5833 5831 5828 5825 5822 5820 5818 5816 5813 5810 5808 5805 5803 5801 5799 5797 5796 5795 5794 5792 5791 5790 5789 5788 5787 5786 5785 5784 5783 5782 5781 5780 5780 5780 5780 5780 5780 5780 5781 5781 5781 5782 5782 5784 5785 5786 5787 5788 5789 5790 5791 5791 5793 5796 5796 5797 5799 5800 5801 5804 5807
5869 5867 5866 5864 5862 5859 5858 5857 5857 5856 5853 5850 5849 5848 5846 5845 5843 5841 5840 5838 5836 5834 5832 5829 5827 5824 5821 5818 5816 5814 5811 5809 5806 5803 5801 5798 5796 5794 5792 5790 5789 5788 5787 5786 5785 5784 5783 5781 5780 5779 5778 5777 5776 5774 5774 5773 5772 5773 5773 5773 5773 5773 5774 5774 5774 5775 5776 5777 5778 5779 5780 5782 5783 5783 5784 5785 5786 5788 5789 5790 5793 5795 5794 5796 5800
5865 5863 5861 5860 5858 5856 5856 5855 5853 5852 5850 5847 5845 5844 5842 5840 5839 5837 5835 5833 5830 5828 5825 5822 5819 5817 5814 5812 5809 5807 5804 5802 5799 5796 5793 5791 5789 5787 5785 5784 5783 5782 5781 5779 5778 5777 5776 5774 5773 5771 5770 5769 5768 5767 5766 5766 5765 5765 5765 5765 5766 5766 5767 5766 5767 5768 5769 5770 5771 5772 5773 5775 5776 5776 5777 5778 5779 5781 5783 5783 5786 5788 5789 5790 5793
5862 5859 5857 5855 5854 5853 5853 5852 5850 5848 5846 5843 5841 5840 5838 5836 5834 5832 5830 5827 5824 5821 5818 5815 5813 5810 5808 5806 5803 5800 5797 5794 5791 5788 5786 5783 5781 5779 5778 5777 5776 5775 5774 5772 5771 5770 5768 5767 5766 5764 5763 5762 5761 5760 5759 5759 5758 5758 5758 5759 5759 5759 5759 5759 5760 5760 5761 5763 5764 5765 5766 5768 5769 5769 5770 5772 5772 5774 5776 5777 5778 5781 5783 5785 5788
5858 5856 5854 5852 5850 5849 5848 5847 5845 5843 5841 5839 5837 5836 5834 5832 5829 5827 5824 5821 5818 5815 5812 5810 5807 5805 5802 5799 5796 5793 5790 5786 5783 5780 5778 5775 5773 5771 5770 5769 5768 5767 5766 5765 5764 5762 5761 5760 5758 5757 5756 5755 5754 5753 5753 5752 5752 5752 5752 5752 5752 5752 5753 5753 5753 5753 5754 5756 5757 5758 5759 5760 5762 5763 5764 5765 5766 5767 5769 5771 5772 5775 5777 5779 5782
5855 5853 5851 5849 5847 5844 5843 5841 5839 5837 5835 5834 5832 5831 5829 5827 5824 5821 5818 5815 5812 5809 5806 5804 5801 5797 5794 5791 5788 5785 5781 5778 5775 5772 5770 5767 5765 5764 5762 5761 5760 5759 5758 5757 5756 5755 5753 5752 5751 5750 5749 5748 5747 5746 5746 5745 5745 5745 5745 5745 5746 5746 5747 5747 5746 5747 5748 5749 5750 5751 5752 5753 5755 5756 5757 5758 5760 5761 5763 5765 5766 5768 5770 5772 5775
5852 5850 5848 5846 5843 5841 5838 5836 5834 5832 5830 5829 5827 5825 5823 5820 5817 5814 5811 5807 5805 5802 5798 5795 5792 5788 5785 5782 5779 5776 5773 5770 5767 5764 5762 5760 5758 5757 5755 5754 5753 5752 5751 5749 5748 5747 5746 5745 5744 5744 5743 5741 5740 5739 5739 5738 5738 5738 5738 5739 5740 5740 5741 5741 5741 5741 5742 5742 5743 5745 5746 5746 5748 5750 5750 5751 5753 5755 5757 5759 5760 5761 5764 5766 5768
5849 5846 5844 5841 5839 5836 5834 5832 5830 5828 5826 5824 5822 5819 5816 5813 5810 5806 5803 5799 5796 5793 5789 5786 5783 5780 5777 5774 5771 5768 5765 5762 5760 5757 5755 5753 5752 5750 5749 5747 5746 5745 5743 5742 5741 5740 5739 5738 5737 5737 5736 5735 5734 5733 5732 5732 5732 5732 5732 5733 5733 5734 5735 5735 5735 5735 5736 5736 5738 5739 5739 5740 5742 5743 5744 5745 5747 5749 5751 5753 5754 5756 5758 5760 5762
5845 5842 5840 5837 5835 5832 5830 5828 5826 5824 5822 5819 5817 5813 5810 5806 5802 5799 5795 5792 5789 5785 5782 5779 5776 5773 5770 5766 5763 5761 5758 5755 5752 5750 5748 5746 5744 5743 5742 5740 5739 5738 5737 5735 5734 5733 5732 5731 5730 5729 5729 5728 5727 5726 5726 5726 5726 5727 5727 5727 5727 5728 5729 5730 5730 5730 5730 5731 5732 5733 5734 5735 5736 5737 5738 5739 5741 5742 5744 5746 5749 5750 5752 5754 5756
5840 5838 5835 5833 5831 5829 5826 5824 5822 5820 5817 5814 5811 5807 5804 5800 5796 5793 5790 5787 5783 5779 5775 5772 5768 5765 5762 5758 5756 5754 5751 5747 5744 5742 5740 5739 5737 5736 5734 5733 5732 5731 5730 5729 5727 5726 5725 5723 5722 5722 5722 5722 5721 5721 5720 5720 5721 5721 5721 5721 5721 5722 5723 5724 5724 5724 5725 5725 5726 5728 5729 5729 5730 5731 5732 5733 5735 5736 5738 5741 5743 5744 5746 5748 5750
5835 5833 5831 5829 5827 5825 5823 5820 5817 5814 5812 5809 5805 5802 5798 5795 5791 5788 5784 5780 5777 5773 5769 5765 5761 5757 5754 5751 5748 5745 5743 5740 5737 5735 5733 5731 5730 5729 5727 5726 5725 5724 5723 5722 5721 5719 5718 5717 5715 5715 5715 5715 5716 5716 5716 5715 5716 5716 5716 5715 5716 5717 5718 5719 5719 5719 5719 5720 5721 5722 5723 5724 5725 5726 5727 5727 5729 5730 5732 5735 5736 5737 5740 5742 5744
5831 5829 5827 5825 5823 5820 5818 5815 5812 5810 5807 5804 5801 5797 5793 5789 5785 5781 5778 5774 5770 5766 5762 5758 5754 5750 5746 5743 5740 5737 5735 5733 5731 5729 5727 5725 5724 5722 5721 5720 5719 5718 5717 5716 5715 5713 5712 5710 5709 5709 5709 5710 5711 5711 5711 5710 5710 5711 5710 5710 5711 5712 5713 5713 5714 5714 5715 5715 5716 5717 5718 5719 5720 5721 5722 5722 5723 5724 5726 5728 5730 5731 5734 5736 5738
5827 5825 5823 5820 5818 5815 5813 5811 5808 5805 5802 5799 5795 5791 5787 5784 5780 5776 5772 5768 5764 5760 5755 5751 5747 5743 5739 5735 5732 5729 5728 5726 5724 5722 5721 5719 5717 5716 5714 5713 5712 5712 5711 5710 5709 5708 5706 5704 5704 5703 5704 5705 5706 5706 5706 5705 5705 5705 5705 5706 5706 5707 5707 5708 5709 5710 5711 5711 5711 5712 5713 5714 5715 5716 5717 5717 5718 5719 5720 5722 5724 5726 5728 5730 5732
5822 5820 5818 5816 5813 5811 5809 5806 5803 5800 5797 5793 5789 5785 5782 5778 5774 5770 5766 5762 5757 5753 5748 5744 5740 5735 5731 5728 5725 5722 5720 5719 5718 5716 5714 5713 5711 5709 5708 5707 5706 5706 5705 5704 5703 5702 5700 5699 5698 5698 5698 5699 5700 5701 5701 5700 5700 5700 5700 5700 5701 5702 5702 5703 5704 5705 5706 5707 5707 5707 5708 5709 5710 5710 5711 5712 5712 5713 5715 5717 5719 5721 5723 5725 5727
5818 5816 5814 5811 5809 5806 5804 5801 5798 5795 5791 5788 5784 5780 5776 5772 5768 5764 5760 5755 5750 5746 5742 5737 5733 5728 5724 5720 5717 5714 5712 5711 5710 5709 5707 5706 5704 5703 5702 5701 5700 5699 5699 5698 5697 5695 5694 5693 5692 5692 5692 5693 5695 5695 5696 5695 5695 5695 5695 5695 5696 5697 5698 5699 5700 5701 5702 5702 5703 5703 5704 5704 5704 5705 5706 5707 5707 5708 5710 5712 5714 5717 5719 5720 5722
5814 5812 5809 5807 5804 5802 5799 5796 5793 5789 5785 5782 5778 5774 5770 5766 5762 5757 5753 5748 5744 5739 5735 5731 5726 5721 5716 5712 5708 5706 5703 5702 5701 5701 5700 5699 5698 5697 5696 5695 5694 5693 5693 5692 5690 5689 5688 5687 5687 5686 5687 5688 5689 5690 5691 5691 5691 5691 5691 5692 5693 5693 5694 5695 5696 5697 5698 5698 5699 5699 5699 5699 5700 5700 5701 5702 5703 5704 5706 5708 5710 5712 5714 5715 5717
5810 5807 5805 5802 5800 5797 5794 5791 5787 5784 5781 5777 5773 5769 5765 5760 5756 5751 5747 5742 5738 5734 5729 5725 5720 5716 5711 5706 5701 5698 5697 5695 5694 5694 5694 5694 5693 5692 5691 5690 5689 5688 5687 5686 5684 5683 5682 5681 5681 5682 5682 5683 5684 5686 5686 5687 5687 5688 5688 5689 5689 5690 5691 5692 5692 5693 5694 5694 5695 5695 5695 5695 5695 5696 5697 5698 5699 5700 5702 5704 5705 5707 5708 5710 5711
5805 5803 5800 5798 5795 5792 5789 5786 5783 5779 5776 5772 5768 5764 5759 5755 5751 5746 5741 5737 5733 5729 5725 5721 5716 5712 5707 5702 5698 5695 5693 5691 5690 5690 5689 5689 5688 5688 5687 5685 5684 5683 5682 5680 5679 5678 5678 5677 5677 5677 5678 5680 5680 5681 5682 5683 5684 5685 5685 5686 5686 5687 5687 5688 5689 5690 5690 5691 5691 5691 5691 5691 5691 5692 5693 5694 5695 5697 5698 5699 5700 5702 5703 5704 5705
5800 5798 5795 5793 5790 5788 5785 5781 5778 5775 5771 5767 5763 5759 5754 5750 5746 5741 5737 5733 5729 5725 5721 5717 5713 5709 5704 5700 5697 5694 5691 5689 5687 5686 5686 5686 5685 5684 5683 5682 5681 5679 5678 5677 5676 5675 5674 5674 5674 5675 5676 5677 5678 5679 5680 5680 5681 5682 5683 5683 5684 5684 5685 5685 5686 5687 5687 5687 5687 5687 5687 5687 5688 5689 5689 5690 5692 5692 5693 5694 5695 5697 5697 5698 5699
5795 5793 5791 5789 5786 5783 5780 5777 5774 5770 5766 5763 5758 5754 5750 5746 5742 5738 5734 5730 5726 5722 5719 5715 5711 5707 5702 5698 5695 5693 5690 5687 5685 5684 5684 5683 5682 5682 5681 5680 5679 5677 5676 5674 5673 5672 5672 5672 5672 5673 5674 5675 5676 5677 5678 5679 5679 5680 5681 5681 5682 5682 5682 5683 5683 5684 5684 5684 5684 5684 5683 5683 5684 5685 5685 5686 5687 5687 5687 5688 5690 5691 5691 5691 5692
5791 5789 5786 5784 5782 5779 5775 5772 5769 5765 5762 5758 5754 5751 5747 5743 5739 5735 5731 5727 5724 5720 5717 5713 5710 5706 5702 5698 5694 5690 5688 5686 5684 5683 5682 5681 5681 5681 5680 5679 5678 5676 5675 5673 5672 5671 5670 5670 5671 5672 5673 5674 5675 5676 5677 5678 5678 5679 5679 5680 5680 5680 5680 5680 5680 5680 5680 5680 5679 5679 5680 5680 5680 5680 5680 5680 5681 5681 5682 5683 5684 5685 5686 5685 5686
5787 5785 5782 5780 5777 5774 5771 5768 5765 5761 5758 5755 5751 5747 5744 5740 5736 5733 5729 5726 5722 5719 5716 5713 5709 5705 5702 5697 5693 5689 5687 5685 5684 5683 5682 5681 5681 5681 5680 5679 5678 5676 5674 5673 5672 5671 5670 5669 5669 5670 5671 5673 5674 5675 5676 5677 5678 5678 5678 5678 5678 5678 5678 5678 5677 5677 5677 5676 5675 5675 5676 5676 5676 5675 5675 5674 5674 5675 5676 5677 5678 5679 5680 5680 5681
5783 5781 5778 5776 5773 5770 5767 5764 5761 5758 5755 5752 5749 5745 5741 5738 5735 5731 5728 5725 5722 5719 5716 5712 5708 5705 5701 5697 5694 5691 5688 5686 5685 5683 5682 5682 5682 5681 5680 5679 5678 5677 5676 5674 5673 5672 5671 5670 5669 5669 5671 5672 5674 5675 5676 5677 5677 5677 5677 5677 5677 5677 5677 5677 5676 5676 5675 5675 5674 5674 5673 5673 5673 5672 5672 5671 5671 5671 5672 5673 5674 5675 5675 5676 5676
5779 5777 5775 5772 5769 5767 5764 5761 5758 5755 5752 5749 5746 5743 5739 5736 5734 5730 5727 5725 5722 5719 5715 5712 5708 5705 5701 5698 5695 5692 5689 5687 5685 5684 5683 5683 5682 5681 5681 5680 5679 5678 5678 5677 5675 5674 5673 5672 5671 5670 5671 5673 5674 5675 5676 5677 5677 5677 5677 5677 5676 5676 5676 5676 5675 5675 5674 5674 5674 5673 5673 5672 5672 5671 5671 5671 5670 5670 5671 5671 5672 5672 5672 5673 5673
5776 5774 5771 5768 5766 5763 5760 5758 5755 5752 5750 5747 5744 5741 5738 5735 5733 5730 5727 5725 5722 5719 5715 5712 5709 5705 5702 5699 5696 5693 5691 5689 5687 5686 5685 5684 5682 5682 5682 5682 5681 5680 5680 5679 5677 5676 5675 5674 5673 5673 5673 5674 5675 5676 5677 5677 5677 5677 5677 5676 5676 5676 5675 5675 5675 5674 5674 5673 5673 5673 5672 5672 5671 5671 5670 5670 5670 5670 5670 5670 5670 5670 5670 5670 5670
5772 5770 5768 5765 5762 5760 5757 5754 5752 5750 5747 5745 5742 5739 5737 5734 5732 5730 5727 5725 5722 5719 5716 5713 5709 5706 5704 5701 5699 5696 5694 5691 5689 5688 5686 5685 5684 5683 5683 5683 5683 5682 5681 5680 5679 5678 5677 5676 5675 5676 5676 5676 5677 5677 5677 5677 5677 5677 5677 5676 5676 5675 5675 5675 5674 5674 5673 5673 5672 5672 5671 5671 5671 5670 5670 5669 5669 5669 5668 5668 5668 5668 5668 5668 5668
5769 5767 5764 5762 5759 5757 5754 5752 5750 5748 5745 5743 5740 5738 5736 5734 5732 5730 5728 5726 5723 5720 5717 5714 5711 5708 5706 5703 5701 5699 5696 5693 5691 5690 5689 5687 5686 5686 5685 5685 5684 5684 5683 5682 5681 5680 5679 5679 5678 5678 5678 5678 5678 5678 5678 5678 5677 5677 5677 5676 5676 5675 5675 5674 5674 5673 5673 5672 5672 5671 5671 5670 5670 5669 5669 5669 5668 5668 5667 5667 5667 5666 5666 5666 5665
5765 5763 5761 5759 5756 5754 5751 5749 5747 5745 5743 5741 5739 5737 5735 5733 5731 5730 5728 5726 5724 5722 5719 5716 5713 5711 5708 5705 5703 5701 5698 5696 5694 5692 5691 5690 5689 5688 5687 5687 5687 5686 5685 5684 5683 5682 5682 5681 5681 5680 5680 5680 5680 5679 5679 5678 5678 5677 5677 5676 5676 5675 5674 5674 5673 5673 5672 5672 5671 5671 5670 5670 5669 5669 5669 5668 5668 5667 5667 5666 5665 5665 5664 5664 5663
5762 5760 5758 5756 5753 5751 5749 5747 5745 5743 5741 5739 5737 5736 5734 5733 5731 5730 5729 5727 5725 5723 5722 5719 5716 5714 5711 5708 5706 5703 5700 5698 5696 5695 5694 5692 5691 5690 5690 5690 5689 5688 5688 5687 5686 5685 5684 5683 5682 5682 5681 5681 5681 5680 5679 5679 5678 5677 5677 5676 5675 5675 5674 5673 5673 5672 5672 5671 5671 5670 5670 5669 5669 5668 5668 5667 5667 5666 5666 5665 5664 5664 5663 5662 5661
5759 5757 5755 5753 5751 5748 5746 5744 5742 5741 5739 5738 5736 5735 5733 5732 5731 5730 5729 5727 5726 5725 5724 5722 5719 5716 5714 5711 5709 5707 5704 5701 5699 5697 5696 5696 5695 5695 5694 5693 5692 5691 5690 5689 5688 5687 5686 5685 5684 5684 5683 5683 5682 5681 5680 5679 5679 5678 5677 5676 5676 5675 5674 5673 5673 5673 5672 5671 5671 5670 5670 5669 5668 5668 5667 5667 5666 5665 5665 5664 5663 5663 5662 5661 5660
5757 5754 5752 5750 5748 5745 5743 5741 5740 5738 5737 5736 5735 5734 5732 5731 5731 5730 5729 5728 5728 5727 5726 5724 5721 5719 5717 5715 5713 5711 5707 5704 5702 5701 5701 5701 5700 5700 5698 5696 5696 5695 5694 5693 5691 5690 5689 5688 5687 5686 5686 5685 5684 5683 5682 5681 5680 5680 5679 5678 5677 5676 5676 5675 5674 5674 5673 5673 5672 5671 5670 5669 5669 5668 5667 5667 5666 5666 5665 5664 5663 5663 5662 5661 5660
5754 5752 5750 5747 5745 5743 5740 5739 5737 5736 5735 5735 5734 5733 5732 5731 5731 5730 5730 5730 5730 5729 5727 5726 5724 5721 5719 5718 5716 5713 5710 5707 5706 5706 5706 5705 5705 5703 5702 5700 5700 5699 5697 5696 5695 5694 5693 5692 5690 5689 5688 5687 5687 5686 5685 5684 5683 5682 5682 5681 5680 5679 5678 5677 5677 5676 5675 5675 5674 5673 5672 5671 5671 5670 5669 5668 5667 5667 5666 5666 5665 5664 5663 5662 5661
5751 5749 5747 5744 5742 5740 5738 5736 5735 5734 5734 5733 5733 5732 5731 5731 5731 5731 5731 5731 5731 5730 5729 5727 5725 5724 5722 5720 5718 5716 5713 5711 5711 5710 5709 5708 5707 5706 5705 5704 5703 5702 5700 5699 5698 5697 5696 5695 5693 5692 5691 5690 5690 5689 5688 5687 5686 5685 5684 5683 5683 5682 5681 5680 5679 5678 5677 5677 5676 5675 5674 5673 5673 5672 5671 5670 5669 5668 5668 5667 5666 5665 5664 5663 5662
5748 5746 5744 5741 5739 5737 5735 5734 5733 5733 5732 5732 5731 5731 5730 5731 5731 5731 5731 5732 5732 5731 5730 5728 5727 5725 5724 5722 5720 5719 5717 5715 5714 5713 5712 5711 5710 5708 5707 5706 5705 5704 5703 5701 5700 5699 5698 5697 5696 5695 5694 5693 5692 5691 5690 5689 5688 5687 5686 5685 5684 5683 5683 5682 5681 5680 5679 5678 5678 5677 5676 5675 5674 5673 5672 5671 5670 5670 5669 5668 5667 5666 5665 5663 5662
5746 5743 5741 5739 5737 5735 5734 5733 5732 5731 5731 5731 5731 5730 5730 5730 5731 5732 5732 5732 5732 5732 5731 5730 5728 5727 5726 5724 5723 5721 5719 5718 5717 5716 5714 5713 5712 5711 5709 5708 5707 5706 5705 5703 5702 5701 5700 5699 5698 5697 5696 5695 5694 5693 5692 5691 5690 5689 5688 5687 5686 5685 5684 5684 5683 5682 5681 5680 5679 5678 5677 5676 5675 5674 5673 5672 5671 5670 5669 5668 5667 5665 5664 5663 5662
5744 5741 5738 5736 5735 5734 5733 5732 5731 5731 5730 5730 5730 5729 5729 5730 5732 5732 5733 5733 5733 5733 5732 5731 5730 5728 5727 5726 5724 5723 5721 5720 5719 5718 5716 5715 5714 5713 5711 5710 5709 5708 5707 5705 5704 5703 5702 5701 5700 5699 5698 5697 5696 5695 5693 5692 5691 5691 5689 5688 5687 5686 5685 5685 5684 5683 5682 5681 5680 5679 5677 5676 5675 5674 5673 5672 5671 5669 5668 5667 5666 5665 5663 5662 5661
5742 5739 5737 5735 5734 5733 5732 5732 5731 5731 5730 5730 5729 5729 5730 5731 5732 5733 5733 5734 5734 5734 5733 5732 5731 5730 5728 5727 5726 5724 5723 5722 5721 5719 5718 5717 5716 5714 5713 5712 5711 5710 5708 5707 5706 5705 5704 5702 5701 5700 5699 5698 5697 5696 5695 5693 5692 5691 5690 5689 5688 5687 5686 5685 5684 5682 5681 5680 5679 5678 5677 5676 5674 5673 5672 5671 5670 5668 5667 5666 5664 5663 5662 5660 5659
5740 5738 5736 5735 5734 5733 5733 5732 5731 5731 5730 5729 5729 5730 5731 5732 5733 5734 5734 5734 5735 5735 5734 5733 5732 5731 5730 5728 5727 5726 5724 5723 5722 5721 5720 5718 5717 5716 5715 5713 5712 5711 5709 5708 5707 5706 5705 5703 5702 5701 5700 5699 5697 5696 5695 5694 5693 5692 5690 5689 5688 5687 5686 5685 5683 5682 5681 5680 5678 5677 5676 5675 5673 5672 5671 5670 5668 5667 5665 5664 5662 5661 5659 5658 5657
5739 5737 5735 5734 5734 5733 5733 5732 5731 5731 5731 5730 5729 5730 5732 5733 5734 5735 5735 5735 5735 5735 5735 5734 5733 5732 5731 5729 5728 5726 5725 5724 5723 5722 5721 5719 5718 5717 5716 5714 5713 5712 5710 5709 5708 5707 5706 5704 5703 5702 5701 5699 5698 5697 5696 5695 5693 5692 5691 5690 5688 5687 5686 5684 5683 5682 5681 5679 5678 5677 5675 5674 5673 5671 5670 5669 5667 5665 5664 5662 5661 5659 5657 5655 5654
5739 5737 5735 5734 5734 5733 5733 5733 5732 5732 5732 5732 5732 5732 5733 5734 5735 5735 5736 5736 5736 5736 5735 5734 5734 5732 5731 5730 5729 5727 5726 5725 5724 5723 5722 5720 5719 5718 5717 5715 5714 5713 5712 5711 5709 5708 5707 5706 5704 5703 5702 5700 5699 5698 5697 5695 5694 5693 5691 5690 5688 5687 5686 5684 5683 5682 5680 5679 5678 5676 5675 5673 5672 5670 5669 5667 5665 5664 5662 5661 5659 5657 5655 5653 5651
5740 5738 5736 5735 5735 5735 5735 5735 5735 5735 5734 5734 5734 5735 5736 5736 5736 5736 5737 5737 5736 5736 5735 5735 5734 5733 5732 5730 5729 5728 5727 5726 5725 5724 5723 5721 5720 5719 5718 5716 5715 5714 5713 5712 5710 5709 5708 5707 5705 5704 5702 5701 5700 5698 5697 5696 5694 5693 5692 5690 5689 5687 5686 5685 5683 5681 5680 5678 5677 5675 5673 5672 5670 5669 5667 5665 5663 5662 5660 5658 5656 5654 5652 5650 5648
5742 5740 5739 5738 5738 5738 5738 5738 5737 5737 5737 5736 5736 5737 5737 5737 5737 5737 5737 5737 5737 5736 5736 5735 5734 5733 5732 5731 5729 5728 5727 5726 5725 5724 5723 5722 5721 5719 5718 5717 5716 5715 5714 5712 5711 5710 5708 5707 5706 5704 5703 5701 5700 5699 5697 5696 5694 5693 5692 5690 5689 5687 5686 5684 5682 5681 5679 5677 5675 5673 5672 5670 5668 5667 5665 5663 5661 5659 5657 5655 5653 5651 5649 5647 5645
5743 5742 5742 5741 5741 5741 5741 5741 5740 5739 5739 5738 5738 5738 5738 5738 5738 5738 5738 5738 5737 5737 5736 5735 5734 5733 5732 5730 5729 5728 5727 5726 5725 5724 5723 5722 5721 5719 5718 5717 5716 5715 5714 5713 5711 5710 5708 5707 5706 5704 5703 5701 5700 5698 5697 5696 5694 5693 5691 5690 5688 5686 5684 5683 5681 5679 5677 5676 5674 5672 5670 5668 5666 5664 5662 5660 5658 5656 5654 5652 5650 5648 5645 5643 5641
5744 5743 5743 5743 5743 5742 5742 5742 5741 5741 5740 5740 5739 5739 5739 5739 5739 5739 5738 5738 5738 5737 5736 5735 5734 5733 5732 5731 5729 5728 5727 5727 5725 5724 5723 5722 5721 5720 5718 5717 5716 5715 5714 5712 5711 5709 5708 5707 5705 5704 5702 5701 5699 5698 5696 5695 5693 5692 5690 5688 5687 5685 5683 5681 5679 5677 5676 5674 5672 5670 5668 5666 5664 5662 5660 5658 5656 5653 5651 5649 5647 5644 5642 5640 5637